Presure
253 182 112 230 133 175 239 242 301 281 302 301 225 161 125 253 132 236 249 245 160 255 252 133 212 177 161 181 133 225 242 237 239 241 167 167 237 203 197 178 181 153 161 179 152 144 128
236 146 212 145 231 236 239 291 287 305 294 312 260 244 129 129 247 239 239 120 238 224 164 235 221 155 127 239 143 211 237 242 245 245 180 240 200 278 192 117 187 187 177 146 126 126 165
126 231 154 226 236 235 269 287 303 317 237 337 347 271 126 229 232 236 232 257 216 120 213 249 238 227 232 232 229 229 227 232 239 245 135 248 266 266 268 254 214 253 190 183 187 137 185
124 231 228 231 230 240 284 289 318 302 342 323 325 292 249 134 233 127 238 207 120 138 231 228 235 233 223 227 223 146 158 159 156 238 235 251 258 256 254 229 226 252 254 153 169 189 189
229 217 229 130 228 278 295 254 298 303 286 125 211 265 131 192 227 146 233 120 118 235 229 224 220 221 222 231 244 248 245 242 179 242 244 243 243 241 239 240 283 268 260 241 200 164 139
117 217 221 227 269 277 250 273 268 275 259 241 230 239 234 235 230 122 243 119 127 239 240 239 234 227 224 141 190 236 238 237 237 236 234 231 231 247 252 228 249 247 238 172 258 143 134
218 221 223 257 274 268 257 271 240 258 179 243 126 225 219 231 225 227 221 226 155 226 236 237 242 229 234 235 236 232 235 230 231 231 229 229 227 224 243 248 233 238 234 233 239 233 225
217 209 145 265 280 234 259 240 247 239 229 218 214 171 218 193 227 231 218 231 167 218 237 161 225 213 224 224 228 227 215 221 223 225 201 149 152 175 235 232 231 226 223 224 227 222 232
212 164 244 275 226 240 236 237 240 199 158 224 224 212 219 217 149 124 121 230 210 111 221 221 226 223 224 221 222 221 224 222 222 147 146 148 230 229 232 227 227 239 223 222 194 219 222
208 216 273 279 243 240 239 240 207 220 217 236 226 223 237 240 223 207 213 115 122 224 218 219 222 220 216 216 211 211 215 160 157 202 216 219 220 229 225 228 229 223 133 139 220 225 212
208 274 175 247 237 238 235 221 220 215 209 234 234 234 209 211 214 213 206 131 217 207 115 216 214 214 209 211 210 209 212 213 214 216 234 244 228 238 130 195 129 133 139 226 225 217 211
210 248 232 226 237 218 185 194 222 231 175 226 216 213 188 201 175 175 148 117 200 216 214 211 210 208 189 205 208 209 205 219 230 228 222 238 238 197 166 227 190 223 214 214 219 218 200
203 250 237 228 239 228 216 134 218 195 211 214 210 203 181 196 204 201 203 208 199 213 209 204 204 205 206 205 206 208 211 191 217 216 245 251 229 233 241 255 238 228 234 226 219 209 215
257 243 228 241 226 218 221 207 132 209 201 206 202 162 107 201 203 208 215 208 213 203 203 205 204 203 203 198 199 207 217 209 181 243 240 234 238 240 255 251 248 246 240 241 231 218 207
242 233 228 233 228 214 157 208 197 198 203 192 193 192 189 200 196 210 215 211 206 206 200 201 197 198 196 204 201 227 211 208 224 233 223 216 212 231 239 248 260 240 243 258 256 228 196
241 231 223 225 207 215 126 200 200 198 188 184 201 196 196 214 210 209 212 211 201 200 195 149 196 195 193 193 191 210 203 201 205 199 208 211 212 213 205 200 200 202 201 200 183 212 194
234 228 230 211 220 182 197 197 190 202 192 192 209 204 203 197 229 217 210 203 198 193 196 198 194 191 193 189 194 194 196 199 197 198 191 198 200 190 192 195 197 197 202 184 202 197 194
227 229 226 211 211 198 196 182 187 195 193 186 191 197 215 231 220 205 205 202 192 196 197 192 189 195 189 194 188 193 203 198 199 190 188 191 189 195 195 195 204 201 202 195 185 177 180
222 219 216 207 213 205 190 192 196 185 192 200 201 200 226 221 206 204 199 197 195 197 190 191 187 202 196 186 191 198 196 200 195 189 189 188 191 190 187 190 195 185 183 181 187 191 193
208 226 210 208 201 204 188 189 198 202 214 218 198 196 220 216 206 200 198 195 189 195 192 190 188 187 198 199 189 188 196 197 191 189 190 188 190 195 191 187 186 184 184 187 183 182 184
207 241 228 206 199 202 190 203 191 190 192 197 197 205 213 210 204 197 195 197 195 192 192 190 193 191 202 201 194 189 197 199 190 191 189 195 188 188 184 206 197 212 196 187 194 201 198
203 236 221 208 209 182 204 191 185 195 182 194 190 207 202 199 203 203 198 195 189 192 193 191 192 187 198 198 194 194 197 195 193 189 188 190 195 188 198 197 206 203 212 207 204 191 183
193 235 232 223 210 189 207 198 200 187 194 204 196 198 189 194 196 205 199 197 194 189 191 198 191 188 179 185 198 196 196 196 197 190 189 190 190 190 196 197 195 200 189 189 189 189 187
203 237 226 226 205 200 190 207 194 190 193 195 203 190 188 193 197 198 195 211 203 199 195 191 189 188 180 179 179 188 195 196 194 190 187 186 193 193 200 199 196 186 187 191 184 180 184
186 205 225 220 219 199 194 198 202 203 197 185 198 197 195 197 195 186 194 197 210 210 203 199 186 181 182 181 178 178 182 189 183 189 189 192 185 203 199 193 191 187 189 186 180 169 161
193 203 195 227 218 198 202 197 195 205 185 200 183 182 194 195 195 204 197 189 197 202 206 199 195 193 193 189 178 179 181 191 174 184 172 192 183 202 185 180 175 182 178 177 182 179 172
200 207 210 193 227 203 199 201 205 207 202 190 200 201 192 199 200 195 198 198 200 196 195 198 198 200 206 202 183 181 189 190 186 178 190 196 182 205 171 171 202 186 166 188 187 182 181
200 205 207 205 203 217 208 204 203 210 198 203 196 188 195 192 194 193 192 199 196 200 195 193 190 193 197 198 205 203 179 186 192 184 188 182 195 128 209 163 170 168 171 184 183 190 187
201 201 201 193 208 225 218 207 204 187 213 196 202 206 200 205 200 195 192 188 192 190 190 198 200 200 199 203 205 215 213 188 192 185 190 201 206 208 87 189 187 173 187 171 181 188 195
Wind_Speed
20 31 35 28 37 38 28 27 27 22 22 21 22 27 37 26 37 29 30 31 35 30 32 40 38 38 37 39 38 46 48 52 56 59 62 49 93 108 116 99 97 63 79 101 75 66 56
22 39 26 29 24 24 25 26 23 19 20 18 22 26 37 35 27 28 28 39 29 27 29 33 35 37 40 38 39 44 44 45 46 50 48 63 47 48 89 43 104 112 88 63 51 53 66
42 23 27 25 20 21 25 21 16 11 18 12 14 22 31 26 27 27 28 25 26 34 26 28 31 33 33 34 35 38 40 43 44 44 45 51 41 42 43 55 76 56 113 108 115 61 114
40 24 24 21 17 21 19 16 11 9 6 20 38 32 27 28 26 30 24 26 30 29 26 27 28 30 31 32 33 34 36 35 38 39 40 34 35 38 39 44 48 48 40 45 87 113 115
22 27 23 25 16 18 13 14 15 19 26 26 21 33 28 28 24 26 22 29 29 25 25 26 26 27 29 28 24 23 24 28 30 30 32 33 33 35 36 39 12 21 26 46 70 82 63
32 26 21 17 19 16 17 22 32 26 31 29 26 28 26 25 24 28 25 28 31 25 25 25 26 26 26 31 25 25 26 27 28 29 29 29 31 29 25 39 27 23 32 45 17 54 58
26 25 22 18 18 21 22 35 25 38 19 32 23 28 27 28 25 26 24 26 28 26 23 23 23 20 24 24 25 25 27 25 26 26 27 26 28 30 22 17 30 25 27 27 21 24 35
27 28 25 20 22 22 37 28 34 32 31 26 26 26 25 23 25 25 26 26 24 23 28 22 26 24 25 24 25 25 22 23 23 23 28 40 42 38 21 23 24 28 31 27 25 30 25
30 27 22 23 25 33 30 34 34 23 23 28 28 23 24 24 24 29 28 29 24 23 23 23 28 24 23 20 18 17 14 15 15 39 39 40 18 20 21 24 24 21 27 26 34 27 26
30 27 29 39 36 35 36 36 26 29 28 29 28 27 31 34 33 27 27 27 28 24 24 23 22 20 18 14 12 11 11 34 36 19 16 17 18 21 22 23 24 26 47 49 26 26 29
32 31 28 42 38 40 40 33 33 30 28 31 33 35 29 30 32 30 26 31 26 21 26 20 19 15 15 12 12 13 13 14 14 14 13 14 18 20 39 31 44 47 50 26 26 25 25
33 32 36 37 41 35 32 31 33 32 26 37 36 34 30 28 25 24 21 26 21 23 21 18 16 14 17 13 12 10 11 10 9 9 11 13 16 27 36 23 34 25 25 24 25 25 29
37 39 42 41 46 43 38 22 37 29 35 38 37 33 26 27 24 22 22 23 22 23 20 18 16 14 13 13 11 9 9 16 8 9 10 10 9 11 14 20 24 25 29 29 27 26 22
39 43 43 48 42 45 46 42 22 41 34 36 34 28 27 27 24 24 26 24 25 22 21 19 18 16 13 13 11 8 6 9 21 5 3 5 7 9 13 13 14 19 23 28 29 25 26
42 46 48 52 48 46 29 48 40 38 38 34 31 29 25 25 23 25 27 26 26 24 22 20 18 14 13 9 10 6 8 7 3 1 2 4 6 5 8 9 14 11 15 21 26 23 31
46 50 49 53 45 52 24 44 43 41 36 32 32 30 27 25 27 28 31 30 27 24 23 22 18 17 17 17 17 9 11 9 6 9 5 4 4 5 10 13 14 13 15 16 28 22 28
44 54 57 53 58 38 44 45 39 41 38 34 33 29 29 26 34 36 33 31 28 26 24 20 20 22 19 20 18 17 16 12 12 11 16 11 11 19 16 15 15 14 14 29 22 26 29
44 55 59 53 53 50 46 40 40 42 39 33 32 27 29 34 36 34 33 31 29 25 23 24 24 21 24 19 22 18 13 14 13 20 20 16 20 18 20 19 19 18 19 22 28 39 39
43 52 58 55 55 54 46 44 43 37 37 35 32 29 33 36 36 36 33 30 29 26 27 25 26 17 20 24 21 17 17 16 19 21 21 22 22 23 25 24 20 23 25 32 33 34 36
50 57 57 56 49 56 45 44 38 38 34 36 33 31 35 37 37 35 32 31 30 28 29 28 28 26 19 21 22 24 20 21 23 24 24 26 25 26 28 29 29 29 29 32 37 39 39
52 61 65 55 52 56 47 47 43 40 38 34 34 32 35 36 36 34 34 33 32 32 30 29 25 23 20 21 24 27 24 24 26 25 27 27 29 29 31 32 29 28 30 36 38 37 38
53 60 60 59 64 46 55 49 44 44 39 41 35 32 33 34 34 35 35 34 35 32 30 29 25 25 21 23 26 28 26 27 27 29 31 31 28 33 34 33 36 30 28 31 32 35 41
55 60 61 68 64 50 56 54 52 45 44 39 39 34 34 33 33 31 34 34 35 35 33 29 27 27 32 29 29 29 29 29 27 32 32 32 31 32 36 38 40 35 35 38 40 38 42
55 60 59 67 64 62 48 57 49 47 46 45 40 40 39 36 34 33 33 32 34 34 35 32 31 31 35 37 35 32 33 32 31 33 33 35 34 34 34 36 44 39 42 42 48 48 52
56 54 59 64 67 60 54 54 51 53 53 43 42 42 42 40 39 38 34 34 32 35 35 36 37 40 40 40 39 39 39 37 39 39 39 38 36 37 32 35 40 45 45 49 53 54 56
58 55 54 63 67 57 61 56 53 55 46 52 45 41 45 44 42 38 39 38 35 34 34 38 39 41 41 41 43 44 43 41 45 44 44 41 41 42 34 38 44 44 51 58 58 61 66
60 54 55 54 69 59 57 56 57 56 59 51 53 52 47 49 49 45 43 43 41 40 39 38 39 40 42 44 46 47 45 45 46 47 49 48 43 50 45 46 44 46 56 55 59 61 66
62 59 54 57 56 60 62 60 58 60 58 58 56 47 48 48 49 48 46 47 44 45 44 45 44 45 46 47 48 49 51 50 49 51 52 50 51 26 51 52 49 57 58 60 66 68 70
65 61 59 58 53 58 60 59 60 48 63 53 56 60 54 57 55 51 48 45 48 47 46 48 50 50 49 50 51 52 49 51 51 54 55 59 57 57 13 56 54 59 59 65 68 71 74
Wind_Direction
226 236 237 250 267 274 276 278 277 273 271 258 237 231 256 202 255 216 209 213 240 210 212 247 225 231 236 234 245 227 227 231 235 238 242 246 242 242 245 250 256 259 259 262 266 269 270
215 237 238 251 256 269 276 276 274 272 256 256 207 201 256 257 195 203 206 240 211 213 236 210 218 239 248 217 243 229 227 233 237 241 246 246 252 251 250 266 251 253 260 262 269 272 268
239 228 234 243 262 268 277 269 282 271 230 234 211 215 249 199 198 201 207 196 213 247 217 202 206 211 213 216 219 223 229 234 240 243 246 246 250 248 248 254 252 251 251 253 258 269 267
239 225 234 244 252 263 261 264 232 216 178 145 143 142 178 249 194 233 197 211 242 245 200 206 203 206 215 217 224 238 236 235 239 240 246 239 237 241 243 247 252 251 253 263 259 259 263
208 224 234 219 243 253 236 223 125 162 151 242 194 149 246 215 194 227 193 236 242 185 192 202 212 214 215 214 207 208 212 220 240 228 232 239 243 244 248 247 230 241 249 254 259 265 274
244 222 222 229 241 212 195 169 140 146 153 165 176 165 172 173 182 234 170 238 239 176 176 175 188 204 214 236 223 207 208 215 219 226 233 241 243 242 243 245 245 249 251 264 252 275 279
207 217 222 226 209 194 169 152 164 141 194 149 238 171 184 171 181 180 193 190 224 184 172 171 164 184 178 186 193 204 208 213 217 222 226 231 235 239 243 242 243 246 249 252 252 251 254
206 205 217 206 190 183 158 163 150 150 152 171 176 217 185 198 176 171 172 166 218 192 159 214 170 183 183 193 193 198 222 219 220 224 238 255 257 256 244 246 249 248 249 252 260 259 268
198 218 210 191 184 168 169 159 154 183 219 164 165 177 175 176 213 229 232 157 169 244 172 178 172 180 183 190 196 207 215 221 228 255 260 263 253 254 256 256 258 254 259 259 272 263 262
195 201 184 166 170 168 163 158 177 165 164 161 162 166 155 150 153 175 174 240 242 168 172 174 168 174 180 184 201 218 233 251 256 250 250 255 260 268 265 264 264 263 283 284 266 261 259
195 182 201 172 172 166 162 165 162 166 168 158 157 155 169 171 165 169 174 235 169 183 248 170 170 176 181 186 202 216 227 239 248 254 248 252 253 256 278 274 284 284 282 266 270 263 264
195 193 182 176 173 173 175 173 163 166 181 156 160 165 173 185 209 205 220 243 196 168 170 166 169 179 218 197 208 223 232 249 251 256 255 271 266 272 275 260 269 263 264 267 270 266 257
191 189 178 178 173 167 165 208 160 179 167 166 168 174 196 192 189 194 193 185 192 170 169 177 183 188 192 200 207 226 243 262 270 271 295 290 283 288 285 273 262 267 265 266 264 253 257
188 185 177 177 176 166 160 164 219 168 173 170 175 196 236 194 195 190 185 187 177 181 181 183 185 188 197 208 216 237 251 250 269 314 326 298 303 310 303 291 279 272 268 266 266 263 247
191 181 176 177 176 167 190 169 176 178 173 183 187 193 197 201 202 198 187 182 184 182 186 184 196 196 205 220 226 232 236 242 262 18 279 296 298 360 348 332 308 299 290 280 263 268 267
187 181 177 174 179 167 218 176 178 180 193 198 191 200 202 199 203 202 189 184 187 188 195 234 199 206 215 222 230 227 232 237 243 249 267 272 290 299 280 279 285 291 290 288 286 279 278
188 183 180 177 169 194 184 182 194 185 193 199 199 202 203 201 190 190 186 188 191 199 196 194 204 213 219 229 234 237 242 239 249 256 254 268 271 263 267 273 281 288 295 292 287 277 279
190 185 182 182 181 182 187 189 202 193 199 207 206 202 200 192 186 193 190 187 203 197 199 205 213 219 223 230 241 247 244 246 252 248 256 262 265 281 281 279 298 295 295 282 276 280 281
192 186 186 188 183 179 192 195 194 209 206 206 202 202 195 192 194 195 196 197 199 203 208 211 223 228 228 234 243 243 246 249 251 255 261 265 274 280 280 286 285 282 280 277 281 287 291
191 189 187 190 193 184 198 201 195 204 199 201 207 209 194 191 196 198 200 205 213 209 212 216 225 232 242 245 244 249 249 247 251 258 265 269 273 279 279 281 281 281 279 277 280 286 290
192 193 191 192 194 190 200 191 202 209 210 208 208 203 197 196 200 204 207 207 213 217 220 222 228 235 248 252 250 254 254 254 254 257 263 273 274 277 277 295 282 288 276 274 280 285 287
193 194 191 192 196 204 194 199 209 206 219 215 217 198 201 205 206 211 211 214 220 223 226 228 232 236 251 253 254 257 257 259 262 264 268 276 288 287 300 297 301 297 300 291 290 286 284
194 195 196 195 195 203 200 201 202 216 216 213 216 212 219 217 218 218 221 222 225 230 233 233 232 237 244 252 257 260 263 264 266 266 273 280 285 292 297 297 294 299 291 289 288 290 292
195 196 196 197 196 201 207 201 210 213 215 219 215 222 227 225 226 227 231 233 233 234 237 239 238 241 245 251 256 264 269 271 272 273 276 280 285 290 293 295 295 291 294 295 292 296 297
201 197 197 197 200 201 208 209 213 210 216 223 225 226 230 231 233 234 237 239 240 239 241 242 242 242 245 250 259 264 269 271 273 277 277 283 282 289 285 289 288 292 292 288 289 295 300
197 199 202 201 199 204 209 212 215 215 223 216 228 230 233 237 240 237 235 241 242 244 246 244 246 249 252 254 259 263 268 272 275 277 277 283 282 290 273 277 283 285 288 293 294 296 298
200 202 203 206 204 207 209 213 219 219 217 225 225 230 234 237 241 244 244 245 245 245 249 251 254 259 264 262 261 267 268 272 275 278 280 285 284 291 278 283 285 282 291 290 292 292 293
206 201 205 210 208 208 212 214 218 221 220 223 228 233 234 237 241 246 248 249 249 248 251 254 258 260 262 265 268 271 276 274 275 280 283 285 287 300 293 287 285 289 290 294 293 297 298
203 206 206 211 212 212 213 214 218 224 222 227 232 233 237 239 242 246 249 252 254 255 257 260 262 265 268 271 274 275 272 274 279 281 286 288 288 290 314 280 289 287 291 292 294 297 300